FW7500 Weather Reports


Display with metric or nautical units.
time (UTC)temp
F
wind
direction
speed
MPH
gust
MPH
rain 1hr
in
rain 24hr
in
rain mn
in
humidity
%
barometer
mb
20260901104555 69 0 0.0 0.0 0.00 0.00 0.00 93 1019.7
20260901103053 70 0 0.0 0.0 0.00 0.00 0.00 92 1019.7
20260901101601 70 0 0.0 0.0 0.00 0.00 0.00 92 1019.5
20260901100104 71 0 0.0 0.0 0.00 0.00 0.00 91 1019.2
20260901094600 71 0 0.0 0.0 0.00 0.00 0.00 90 1019.2
20260901093056 72 0 0.0 0.0 0.00 0.00 0.00 88 1019.1
20260901091554 73 0 0.0 0.0 0.00 0.00 0.00 86 1019.0
20260901084557 75 0 0.0 0.0 0.00 0.00 0.00 83 1018.8
20260901083056 75 0 0.0 0.0 0.00 0.00 0.00 83 1018.7
20260901081554 75 0 0.0 0.0 0.00 0.00 0.00 82 1018.4
20260901080100 75 0 0.0 0.0 0.00 0.00 0.00 81 1018.3
20260901074559 76 0 0.0 1.0 0.00 0.00 0.00 81 1018.2
20260901073057 76 0 0.0 0.0 0.00 0.00 0.00 81 1018.2
20260901071603 76 0 0.0 0.0 0.00 0.00 0.00 81 1018.2
20260901064603 75 0 0.0 0.0 0.00 0.00 0.00 83 1018.4
20260901063110 75 0 0.0 0.0 0.00 0.00 0.00 83 1018.4
20260901061624 75 0 0.0 0.0 0.00 0.00 0.00 84 1018.6
20260901054602 75 0 0.0 0.0 0.00 0.00 0.00 84 1018.9
20260901053110 75 0 0.0 0.0 0.00 0.00 0.00 85 1019.2
20260901051559 75 0 0.0 0.0 0.00 0.00 0.00 86 1019.4
20260901050104 74 0 0.0 0.0 0.00 0.00 0.00 89 1019.3
20260901044603 73 0 0.0 0.0 0.00 0.00 0.00 90 1019.3
20260901043102 74 0 0.0 0.0 0.00 0.00 0.00 90 1019.5
20260901041559 74 0 0.0 0.0 0.00 0.00 0.00 91 1019.4
20260901040058 74 0 0.0 0.0 0.00 0.00 0.00 89 1019.4
20260901034602 75 0 0.0 0.0 0.00 0.00 0.00 89 1019.5
20260901033101 75 0 0.0 0.0 0.00 0.00 0.00 90 1019.5
20260901031559 74 0 0.0 0.0 0.00 0.00 0.00 90 1019.5
20260901024553 75 0 0.0 0.0 0.00 0.00 0.00 89 1019.4
20260901023101 75 0 0.0 0.0 0.00 0.00 0.00 87 1019.5
20260901021552 76 0 0.0 0.0 0.00 0.00 0.00 86 1019.3
20260901020109 77 0 0.0 0.0 0.00 0.00 0.00 84 1019.2
20260901014601 78 0 0.0 0.0 0.00 0.00 0.00 82 1019.2
20260901013059 79 0 0.0 0.0 0.00 0.00 0.00 81 1019.1
20260901011600 79 0 0.0 0.0 0.00 0.00 0.00 82 1019.0
20260901010101 79 0 0.0 0.0 0.00 0.00 0.00 80 1018.6
20260901004607 80 0 0.0 0.0 0.00 0.00 0.00 78 1018.6
20260901003051 82 0 0.0 0.0 0.00 0.00 0.00 76 1018.5
20260901001557 82 0 0.0 3.0 0.00 0.00 0.00 74 1018.3
20260901000109 83 360 1.0 3.0 0.00 0.00 0.00 72 1018.2
20260831234606 84 360 2.0 4.0 0.00 0.00 0.00 71 1017.9
20260831233052 84 360 2.0 7.0 0.00 0.00 0.00 70 1018.1
20260831231557 85 360 3.0 6.0 0.00 0.00 0.00 68 1018.2
20260831230057 87 360 3.0 6.0 0.00 0.00 0.00 65 1018.4
20260831224555 88 360 4.0 9.0 0.00 0.00 0.00 63 1018.5
20260831223058 89 360 3.0 7.0 0.00 0.00 0.00 61 1018.7
20260831221553 89 360 3.0 8.0 0.00 0.00 0.00 60 1018.8
20260831220052 90 360 3.0 7.0 0.00 0.00 0.00 60 1018.9
20260831214558 90 360 4.0 10.0 0.00 0.00 0.00 59 1019.1
20260831213102 90 360 3.0 8.0 0.00 0.00 0.00 59 1019.2
20260831211554 90 360 5.0 11.0 0.00 0.00 0.00 58 1019.1
20260831210058 91 360 4.0 9.0 0.00 0.00 0.00 58 1019.1
20260831204556 89 360 3.0 8.0 0.00 0.00 0.00 59 1019.2
20260831203051 90 360 6.0 10.0 0.00 0.00 0.00 56 1019.7
20260831201554 89 264 4.0 7.0 0.00 0.00 0.00 59 1019.8
20260831200055 90 269 6.0 9.0 0.00 0.00 0.00 57 1019.9
20260831194630 90 360 4.0 9.0 0.00 0.00 0.00 59 1020.0
20260831193104 89 259 2.0 8.0 0.00 0.00 0.00 62 1020.2
20260831191556 88 311 4.0 8.0 0.00 0.00 0.00 62 1020.3
20260831190113 89 263 3.0 6.0 0.00 0.00 0.00 62 1020.5
20260831184558 89 360 3.0 9.0 0.00 0.00 0.00 61 1020.5
20260831183106 88 360 2.0 8.0 0.00 0.00 0.00 63 1020.7
20260831181602 88 360 4.0 14.0 0.00 0.00 0.00 65 1020.7
20260831180104 88 281 5.0 9.0 0.00 0.00 0.00 64 1020.9
20260831174601 89 360 5.0 11.0 0.00 0.00 0.00 63 1021.0
20260831173100 89 360 5.0 10.0 0.00 0.00 0.00 64 1021.0
20260831171557 88 360 5.0 11.0 0.00 0.00 0.00 64 1021.0
20260831170107 88 360 5.0 12.0 0.00 0.00 0.00 65 1021.1
20260831164608 87 360 6.0 11.0 0.00 0.00 0.00 67 1021.2
20260831163103 87 360 6.0 11.0 0.00 0.00 0.00 65 1021.3
20260831161603 87 360 5.0 11.0 0.00 0.00 0.00 67 1021.2
20260831160109 86 273 5.0 12.0 0.00 0.00 0.00 68 1021.3
20260831154706 86 360 2.0 9.0 0.00 0.00 0.00 70 1021.3
20260831153101 85 360 2.0 9.0 0.00 0.00 0.00 72 1021.3
20260831151602 83 360 5.0 7.0 0.00 0.00 0.00 74 1021.2
20260831150058 83 274 3.0 7.0 0.00 0.00 0.00 74 1021.1
20260831144610 81 360 1.0 4.0 0.00 0.00 0.00 77 1021.2
20260831143114 80 0 2.0 6.0 0.00 0.00 0.00 78 1021.1
20260831141616 79 297 1.0 5.0 0.00 0.00 0.00 80 1021.2
20260831140057 78 0 1.0 3.0 0.00 0.00 0.00 81 1021.0
20260831134610 77 0 0.0 3.0 0.00 0.00 0.00 83 1021.1
20260831133052 77 0 1.0 4.0 0.00 0.00 0.00 83 1021.0
20260831131609 77 360 2.0 6.0 0.00 0.00 0.00 83 1021.1
20260831130108 76 360 3.0 5.0 0.00 0.00 0.00 84 1021.0
20260831124612 75 360 2.0 6.0 0.00 0.00 0.00 86 1020.8
20260831123102 74 360 1.0 3.0 0.00 0.00 0.00 88 1020.6
20260831121559 72 360 0.0 3.0 0.00 0.00 0.00 89 1020.7
20260831120057 72 360 0.0 2.0 0.00 0.00 0.00 89 1020.5
20260831114603 71 0 0.0 0.0 0.00 0.00 0.00 90 1020.4
20260831113111 71 0 0.0 0.0 0.00 0.00 0.00 90 1020.2
20260831111601 71 0 0.0 0.0 0.00 0.00 0.00 89 1020.2
20260831110057 71 0 0.0 0.0 0.00 0.00 0.00 89 1020.0